Weather History for Vicksburg, MS

Change the Weather History Date:

Tuesday, November 20, 2012

  Actual Average Record
Temperature  
Mean Temperature 57 °F 54 °F  
Max Temperature 73 °F 66 °F 83 °F (1991)
Min Temperature 40 °F 42 °F 17 °F (1951)
Degree Days  
Heating Degree Days 8 11  
Month to date heating degree days 242 172  
Since 1 July heating degree days 397 274  
Cooling Degree Days 0 0  
Month to date cooling degree days 9 12  
Year to date cooling degree days 2397 2221  
Growing Degree Days 6 (Base 50)    
Moisture  
Dew Point 44 °F    
Average Humidity 69    
Maximum Humidity 100    
Minimum Humidity 37    
Precipitation  
Precipitation 0.00 in 0.18 in 2.01 in (1983)
Month to date precipitation 1.75 3.04  
Year to date precipitation 46.04 47.17  
Sea Level Pressure  
Sea Level Pressure 30.21 in    
Wind  
Wind Speed 1 mph (NNE)    
Max Wind Speed 7 mph    
Max Gust Speed 9 mph    
Visibility 10 miles    
Events      
T = Trace of Precipitation, MM = Missing Value Source: NWS Daily Summary

Daily Weather History Graph

Daily Weather History Graph

Search for Another Location

Airport:

Trip Planner

Search our weather history database for the weather conditions in past years. The results will help you decide how hot, cold, wet, or windy it might be!

Date:

Astronomy

Nov. 20, 2012 Rise Set
Actual Time 6:38 AM CST 5:01 PM CST
Civil Twilight 6:12 AM CST 5:27 PM CST
Nautical Twilight 5:42 AM CST 5:57 PM CST
Astronomical Twilight 5:12 AM CST 6:26 PM CST
Moon 12:24 PM CST (11/20) No Moon Set
Length of Visible Light 11h 15m
Length of Day
10h 22m
First Quarter, 51% of the Moon is Illuminated
Nov 20
First Quarter
Nov 28
Full
Dec 6
Last Quarter
Dec 13
New
Dec 19
First Quarter

Hourly Weather History & Observations

Time (CST) Temp. Windchill Dew Point Humidity Pressure Visibility Wind Dir Wind Speed Gust Speed Precip Events Conditions
12:53 AM 42.1 °F - 39.9 °F 92% 30.22 in 10.0 mi Calm Calm - N/A   Mostly Cloudy
1:53 AM 46.9 °F - 44.1 °F 90% 30.21 in 10.0 mi Calm Calm - N/A   Mostly Cloudy
2:53 AM 46.9 °F - 44.1 °F 90% 30.21 in 10.0 mi Calm Calm - N/A   Overcast
3:53 AM 50.0 °F - 46.0 °F 86% 30.22 in 10.0 mi Calm Calm - N/A   Overcast
4:53 AM 51.1 °F - 46.9 °F 86% 30.22 in 10.0 mi Calm Calm - N/A   Overcast
5:53 AM 52.0 °F - 46.9 °F 83% 30.23 in 10.0 mi Calm Calm - N/A   Overcast
6:53 AM 52.0 °F - 46.9 °F 83% 30.23 in 10.0 mi Calm Calm - N/A   Overcast
7:53 AM 53.1 °F - 48.9 °F 86% 30.25 in 10.0 mi Calm Calm - N/A   Overcast
8:53 AM 57.0 °F - 46.0 °F 67% 30.26 in 10.0 mi Calm Calm - N/A   Overcast
9:53 AM 61.0 °F - 46.0 °F 58% 30.26 in 10.0 mi Calm Calm - N/A   Partly Cloudy
10:53 AM 64.9 °F - 44.1 °F 47% 30.25 in 10.0 mi Calm Calm - N/A   Overcast
11:53 AM 68.0 °F - 43.0 °F 40% 30.22 in 10.0 mi Calm Calm - N/A   Overcast
12:53 PM 70.0 °F - 42.1 °F 36% 30.19 in 10.0 mi NNE 4.6 mph - N/A   Overcast
1:53 PM 71.1 °F - 45.0 °F 39% 30.18 in 10.0 mi NW 3.5 mph - N/A   Mostly Cloudy
2:53 PM 72.0 °F - 44.1 °F 37% 30.16 in 10.0 mi NE 4.6 mph - N/A   Partly Cloudy
3:53 PM 72.0 °F - 44.1 °F 37% 30.16 in 10.0 mi Calm Calm - N/A   Clear
4:53 PM 63.0 °F - 44.1 °F 50% 30.16 in 10.0 mi Calm Calm - N/A   Clear
5:53 PM 51.1 °F - 43.0 °F 74% 30.16 in 10.0 mi Calm Calm - N/A   Clear
6:53 PM 48.9 °F - 44.1 °F 83% 30.17 in 10.0 mi Calm Calm - N/A   Clear
7:53 PM 46.0 °F - 42.1 °F 86% 30.19 in 10.0 mi Calm Calm - N/A   Clear
8:53 PM 43.0 °F - 42.1 °F 97% 30.20 in 10.0 mi Calm Calm - N/A   Clear
9:53 PM 43.0 °F 41.3 °F 39.9 °F 89% 30.21 in 10.0 mi South 3.5 mph - N/A   Clear
10:53 PM 41.0 °F - 41.0 °F 100% 30.20 in 10.0 mi Calm Calm - N/A   Clear
11:53 PM 41.0 °F - 39.0 °F 93% 30.19 in 8.0 mi Calm Calm - N/A   Clear